TimeCST,TemperatureF,Dew PointF,Humidity,Sea Level PressureIn,VisibilityMPH,Wind Direction,Wind SpeedMPH,Gust SpeedMPH,PrecipitationIn,Events,Conditions,WindDirDegrees,DateUTC
12:15 AM,41.9,37.4,84,29.97,10.0,SW,15.0,23.0,0.01,Rain,Rain,230,2012-11-06 06:15:00
12:35 AM,41.5,37.9,87,29.94,10.0,SW,13.8,23.0,0.01,Rain,Light Rain,230,2012-11-06 06:35:00
12:55 AM,41.9,38.5,88,29.92,10.0,SW,11.5,-,0.01,,Mostly Cloudy,220,2012-11-06 06:55:00
1:15 AM,42.4,38.7,86,29.92,10.0,SW,13.8,-,N/A,,Scattered Clouds,230,2012-11-06 07:15:00
1:35 AM,42.3,38.1,85,29.93,10.0,West,11.5,-,N/A,,Scattered Clouds,260,2012-11-06 07:35:00
1:55 AM,42.8,38.5,85,29.93,10.0,West,9.2,-,N/A,,Scattered Clouds,260,2012-11-06 07:55:00
2:15 AM,44.1,39.9,85,29.93,10.0,West,10.4,-,N/A,,Scattered Clouds,260,2012-11-06 08:15:00
2:35 AM,46.0,41.4,84,29.95,10.0,WNW,12.7,-,N/A,,Scattered Clouds,290,2012-11-06 08:35:00
2:55 AM,47.1,42.4,84,29.95,10.0,WNW,17.3,21.9,N/A,,Clear,300,2012-11-06 08:55:00
3:15 AM,47.8,43.2,84,29.96,10.0,NW,20.7,26.5,N/A,,Clear,310,2012-11-06 09:15:00
3:35 AM,46.9,42.1,83,29.98,10.0,NW,20.7,26.5,N/A,,Clear,320,2012-11-06 09:35:00
3:55 AM,45.5,39.4,79,29.99,10.0,NW,16.1,23.0,N/A,,Clear,320,2012-11-06 09:55:00
4:15 AM,43.9,37.4,78,30.00,10.0,NNW,13.8,-,N/A,,Clear,330,2012-11-06 10:15:00
4:35 AM,42.8,36.5,78,30.02,10.0,NW,12.7,-,N/A,,Clear,320,2012-11-06 10:35:00
4:55 AM,41.9,35.6,78,30.03,10.0,NNW,17.3,-,N/A,,Clear,330,2012-11-06 10:55:00
5:15 AM,41.2,35.4,80,30.04,10.0,NNW,17.3,-,N/A,,Clear,330,2012-11-06 11:15:00
5:35 AM,40.6,34.3,78,30.04,10.0,NNW,16.1,20.7,N/A,,Clear,330,2012-11-06 11:35:00
5:55 AM,40.1,33.8,78,30.04,10.0,NW,13.8,-,N/A,,Clear,320,2012-11-06 11:55:00
6:15 AM,40.1,32.9,75,30.04,10.0,NW,17.3,-,N/A,,Clear,310,2012-11-06 12:15:00
6:35 AM,39.9,32.4,74,30.04,10.0,WNW,16.1,-,N/A,,Clear,300,2012-11-06 12:35:00
6:55 AM,39.4,32.0,75,30.06,10.0,NW,15.0,-,N/A,,Clear,310,2012-11-06 12:55:00
7:15 AM,39.6,32.0,74,30.07,10.0,NW,15.0,-,N/A,,Scattered Clouds,310,2012-11-06 13:15:00
7:35 AM,39.4,32.0,75,30.08,10.0,NW,13.8,-,N/A,,Scattered Clouds,320,2012-11-06 13:35:00
7:55 AM,40.1,32.0,73,30.08,10.0,NW,13.8,-,N/A,,Clear,310,2012-11-06 13:55:00
8:15 AM,41.0,32.0,70,30.09,10.0,WNW,13.8,-,N/A,,Clear,300,2012-11-06 14:15:00
8:35 AM,42.4,32.2,67,30.09,10.0,WNW,17.3,21.9,N/A,,Clear,300,2012-11-06 14:35:00
8:55 AM,43.7,32.2,64,30.10,10.0,NW,20.7,-,N/A,,Clear,310,2012-11-06 14:55:00
9:15 AM,44.8,32.5,62,30.10,10.0,NW,20.7,28.8,N/A,,Clear,310,2012-11-06 15:15:00
9:35 AM,45.9,32.0,58,30.10,10.0,NW,28.8,35.7,N/A,,Clear,320,2012-11-06 15:35:00
9:55 AM,46.6,31.8,56,30.10,10.0,NW,26.5,35.7,N/A,,Clear,310,2012-11-06 15:55:00
10:15 AM,47.7,31.1,53,30.11,10.0,NW,25.3,31.1,N/A,,Clear,310,2012-11-06 16:15:00
10:35 AM,49.1,31.8,51,30.11,10.0,NW,18.4,29.9,N/A,,Clear,320,2012-11-06 16:35:00
10:55 AM,50.0,29.3,45,30.11,10.0,NNW,25.3,33.4,N/A,,Clear,330,2012-11-06 16:55:00
11:15 AM,51.1,28.8,42,30.10,-9999.0,NW,29.9,39.1,N/A,Thunderstorm,Thunderstorm,320,2012-11-06 17:15:00
11:35 AM,52.0,27.1,38,30.10,10.0,NW,31.1,46.0,N/A,,Clear,320,2012-11-06 17:35:00
11:55 AM,52.7,26.2,36,30.10,10.0,NNW,33.4,40.3,N/A,,Clear,330,2012-11-06 17:55:00
12:15 PM,53.4,25.3,34,30.09,10.0,NW,35.7,44.9,N/A,,Clear,320,2012-11-06 18:15:00
12:35 PM,53.6,24.8,33,30.08,10.0,NW,35.7,43.7,N/A,,Clear,320,2012-11-06 18:35:00
12:55 PM,54.1,25.2,33,30.07,10.0,NW,28.8,40.3,N/A,,Clear,320,2012-11-06 18:55:00
1:15 PM,54.1,25.2,33,30.07,10.0,NNW,32.2,40.3,N/A,,Clear,330,2012-11-06 19:15:00
1:35 PM,54.7,25.3,32,30.06,10.0,NW,29.9,39.1,N/A,,Clear,320,2012-11-06 19:35:00
1:55 PM,54.7,24.8,32,30.06,10.0,NNW,25.3,36.8,N/A,,Clear,330,2012-11-06 19:55:00
2:15 PM,55.2,24.6,31,30.07,10.0,NNW,31.1,39.1,N/A,,Clear,330,2012-11-06 20:15:00
2:35 PM,55.2,23.7,30,30.06,10.0,NW,27.6,38.0,N/A,,Clear,320,2012-11-06 20:35:00
2:55 PM,55.2,23.4,29,30.07,10.0,NW,31.1,36.8,N/A,,Clear,320,2012-11-06 20:55:00
3:15 PM,54.9,23.0,29,30.07,10.0,NW,27.6,38.0,N/A,,Clear,320,2012-11-06 21:15:00
3:35 PM,54.7,23.4,30,30.07,10.0,NNW,23.0,36.8,N/A,,Clear,330,2012-11-06 21:35:00
3:55 PM,54.5,23.7,30,30.07,10.0,NW,23.0,33.4,N/A,,Clear,320,2012-11-06 21:55:00
4:15 PM,54.0,23.5,31,30.08,10.0,NNW,18.4,32.2,N/A,,Clear,330,2012-11-06 22:15:00
4:35 PM,53.4,23.2,31,30.08,10.0,NNW,21.9,28.8,N/A,,Clear,330,2012-11-06 22:35:00
4:55 PM,51.8,23.9,34,30.08,10.0,NNW,16.1,24.2,N/A,,Clear,330,2012-11-06 22:55:00
5:15 PM,50.2,25.0,37,30.09,10.0,NNW,13.8,-,N/A,,Clear,330,2012-11-06 23:15:00
5:35 PM,48.4,25.3,41,30.09,10.0,NNW,10.4,-,N/A,,Clear,330,2012-11-06 23:35:00
5:55 PM,46.4,25.5,44,30.10,10.0,NW,9.2,-,N/A,,Clear,320,2012-11-06 23:55:00
6:15 PM,44.8,25.7,47,30.10,10.0,NW,8.1,-,N/A,,Clear,320,2012-11-07 00:15:00
6:35 PM,43.3,25.3,49,30.10,10.0,NW,6.9,-,N/A,,Clear,310,2012-11-07 00:35:00
6:55 PM,42.4,24.4,49,30.10,10.0,WNW,5.8,-,N/A,,Clear,300,2012-11-07 00:55:00
7:15 PM,41.2,24.6,52,30.11,10.0,NW,6.9,-,N/A,,Clear,310,2012-11-07 01:15:00
7:35 PM,41.9,24.3,50,30.10,10.0,NW,8.1,-,N/A,,Clear,310,2012-11-07 01:35:00
7:55 PM,40.1,24.1,53,30.10,10.0,NW,5.8,-,N/A,,Clear,310,2012-11-07 01:55:00
8:15 PM,39.6,24.6,55,30.10,10.0,NW,8.1,-,N/A,,Clear,310,2012-11-07 02:15:00
8:35 PM,40.1,24.6,54,30.11,10.0,NW,6.9,-,N/A,,Clear,310,2012-11-07 02:35:00
8:55 PM,37.0,24.3,60,30.11,10.0,NW,8.1,-,N/A,,Clear,320,2012-11-07 02:55:00
9:15 PM,37.0,24.4,60,30.11,10.0,NW,6.9,-,N/A,,Clear,320,2012-11-07 03:15:00
9:35 PM,37.0,24.1,59,30.12,10.0,West,6.9,-,N/A,,Clear,280,2012-11-07 03:35:00
9:55 PM,34.3,23.9,66,30.12,10.0,West,9.2,-,N/A,,Clear,270,2012-11-07 03:55:00
10:15 PM,35.4,23.9,63,30.12,10.0,WNW,8.1,-,N/A,,Clear,300,2012-11-07 04:15:00
10:35 PM,36.7,23.9,60,30.12,10.0,WNW,10.4,-,N/A,,Clear,300,2012-11-07 04:35:00
10:55 PM,36.5,23.9,60,30.12,10.0,WNW,6.9,-,N/A,,Clear,300,2012-11-07 04:55:00
11:15 PM,35.1,23.7,63,30.12,10.0,WNW,5.8,-,N/A,,Clear,300,2012-11-07 05:15:00
11:35 PM,34.9,23.9,64,30.13,10.0,WNW,8.1,-,N/A,,Clear,290,2012-11-07 05:35:00
11:55 PM,35.4,23.9,63,30.13,10.0,WNW,6.9,-,N/A,,Clear,290,2012-11-07 05:55:00